| time (UTC) | temp F | wind direction | speed MPH | gust MPH | rain 1hr in | rain 24hr in | rain mn in | humidity % | barometer mb |
| 20260506050542 | 50 | 0 | 0.0 | 0.0 | 0.00 | 0.17 | 0.00 | 91 | 1008.0 |
| 20260506044542 | 50 | 0 | 0.0 | 0.0 | 0.00 | 0.17 | 0.00 | 91 | 1008.0 |
| 20260506043542 | 50 | 180 | 0.0 | 1.0 | 0.00 | 0.17 | 0.00 | 91 | 1008.0 |
| 20260506042542 | 51 | 180 | 1.0 | 2.0 | 0.00 | 0.17 | 0.00 | 91 | 1008.0 |
| 20260506041542 | 51 | 180 | 1.0 | 4.0 | 0.00 | 0.17 | 0.00 | 91 | 1008.1 |
| 20260506040542 | 51 | 180 | 1.0 | 3.0 | 0.00 | 0.17 | 0.00 | 91 | 1008.2 |
| 20260506035542 | 51 | 180 | 1.0 | 3.0 | 0.00 | 0.17 | 0.00 | 90 | 1008.2 |
| 20260506034542 | 51 | 180 | 1.0 | 3.0 | 0.00 | 0.17 | 0.00 | 90 | 1008.2 |
| 20260506033542 | 51 | 180 | 0.0 | 1.0 | 0.00 | 0.17 | 0.00 | 90 | 1008.2 |
| 20260506032542 | 51 | 180 | 1.0 | 3.0 | 0.00 | 0.17 | 0.00 | 90 | 1008.1 |
| 20260506031542 | 51 | 180 | 0.0 | 2.0 | 0.00 | 0.17 | 0.00 | 90 | 1008.1 |
| 20260506030542 | 51 | 0 | 0.0 | 0.0 | 0.00 | 0.17 | 0.00 | 90 | 1008.1 |
| 20260506025542 | 51 | 0 | 0.0 | 0.0 | 0.00 | 0.17 | 0.00 | 90 | 1008.2 |
| 20260506024541 | 52 | 180 | 0.0 | 2.0 | 0.00 | 0.17 | 0.00 | 90 | 1008.2 |
| 20260506023542 | 52 | 180 | 2.0 | 6.0 | 0.00 | 0.17 | 0.00 | 91 | 1008.4 |
| 20260506022541 | 52 | 180 | 2.0 | 4.0 | 0.00 | 0.17 | 0.00 | 91 | 1008.8 |
| 20260506021541 | 52 | 158 | 2.0 | 4.0 | 0.00 | 0.17 | 0.00 | 91 | 1008.7 |
| 20260506020541 | 52 | 180 | 2.0 | 6.0 | 0.00 | 0.17 | 0.00 | 90 | 1008.7 |
| 20260506015541 | 52 | 180 | 1.0 | 3.0 | 0.00 | 0.17 | 0.00 | 91 | 1008.7 |
| 20260506014541 | 52 | 180 | 3.0 | 5.0 | 0.00 | 0.17 | 0.00 | 91 | 1008.7 |
| 20260506013541 | 52 | 202 | 3.0 | 6.0 | 0.00 | 0.17 | 0.00 | 91 | 1008.6 |
| 20260506012541 | 52 | 180 | 2.0 | 5.0 | 0.00 | 0.17 | 0.00 | 91 | 1008.7 |
| 20260506011541 | 52 | 180 | 3.0 | 6.0 | 0.00 | 0.17 | 0.00 | 91 | 1008.6 |
| 20260506010541 | 52 | 180 | 3.0 | 5.0 | 0.00 | 0.17 | 0.00 | 91 | 1008.7 |
| 20260506005541 | 52 | 180 | 2.0 | 5.0 | 0.00 | 0.17 | 0.00 | 91 | 1008.7 |
| 20260506004541 | 52 | 180 | 2.0 | 5.0 | 0.00 | 0.17 | 0.00 | 91 | 1008.7 |
| 20260506003543 | 52 | 158 | 2.0 | 5.0 | 0.00 | 0.17 | 0.00 | 91 | 1008.8 |
| 20260506002543 | 52 | 158 | 1.0 | 5.0 | 0.00 | 0.17 | 0.00 | 91 | 1008.9 |
| 20260506001544 | 52 | 180 | 1.0 | 5.0 | 0.00 | 0.17 | 0.00 | 91 | 1009.0 |
| 20260506000543 | 53 | 180 | 1.0 | 3.0 | 0.00 | 0.17 | 0.00 | 91 | 1009.2 |
| 20260505235543 | 53 | 180 | 2.0 | 5.0 | 0.00 | 0.17 | 0.00 | 91 | 1009.2 |
| 20260505234543 | 53 | 180 | 2.0 | 6.0 | 0.00 | 0.17 | 0.00 | 91 | 1009.3 |
| 20260505233543 | 53 | 180 | 2.0 | 5.0 | 0.00 | 0.17 | 0.00 | 91 | 1009.4 |
| 20260505232543 | 53 | 180 | 2.0 | 4.0 | 0.00 | 0.17 | 0.00 | 92 | 1009.3 |
| 20260505231543 | 53 | 202 | 2.0 | 6.0 | 0.00 | 0.17 | 0.00 | 92 | 1009.3 |
| 20260505230543 | 53 | 202 | 3.0 | 5.0 | 0.00 | 0.17 | 0.00 | 92 | 1009.3 |
| 20260505225544 | 53 | 180 | 4.0 | 7.0 | 0.00 | 0.17 | 0.00 | 92 | 1009.4 |
| 20260505224544 | 53 | 180 | 3.0 | 6.0 | 0.00 | 0.17 | 0.00 | 92 | 1009.4 |
| 20260505223544 | 53 | 180 | 3.0 | 7.0 | 0.00 | 0.17 | 0.00 | 92 | 1009.5 |
| 20260505222544 | 54 | 158 | 2.0 | 5.0 | 0.00 | 0.17 | 0.00 | 92 | 1009.4 |
| 20260505221544 | 54 | 180 | 1.0 | 3.0 | 0.00 | 0.17 | 0.00 | 92 | 1009.2 |
| 20260505220544 | 54 | 180 | 1.0 | 4.0 | 0.00 | 0.17 | 0.00 | 92 | 1009.3 |
| 20260505215543 | 54 | 202 | 2.0 | 4.0 | 0.00 | 0.17 | 0.17 | 92 | 1009.3 |
| 20260505214543 | 54 | 202 | 1.0 | 3.0 | 0.00 | 0.17 | 0.17 | 92 | 1009.5 |
| 20260505213543 | 54 | 202 | 1.0 | 2.0 | 0.00 | 0.17 | 0.17 | 92 | 1009.5 |
| 20260505212543 | 54 | 202 | 2.0 | 3.0 | 0.00 | 0.17 | 0.17 | 92 | 1009.5 |
| 20260505211543 | 54 | 202 | 1.0 | 4.0 | 0.00 | 0.17 | 0.17 | 91 | 1009.5 |
| 20260505210543 | 54 | 202 | 2.0 | 4.0 | 0.00 | 0.17 | 0.17 | 91 | 1009.5 |
| 20260505205543 | 55 | 225 | 4.0 | 7.0 | 0.00 | 0.17 | 0.17 | 91 | 1009.2 |
| 20260505204543 | 55 | 225 | 4.0 | 6.0 | 0.00 | 0.17 | 0.17 | 91 | 1009.3 |
| 20260505203543 | 55 | 225 | 2.0 | 5.0 | 0.00 | 0.17 | 0.17 | 91 | 1009.4 |
| 20260505202543 | 56 | 248 | 3.0 | 7.0 | 0.00 | 0.17 | 0.17 | 91 | 1009.3 |
| 20260505201543 | 56 | 225 | 3.0 | 7.0 | 0.00 | 0.17 | 0.17 | 91 | 1009.0 |
| 20260505200543 | 56 | 225 | 3.0 | 8.0 | 0.00 | 0.17 | 0.17 | 91 | 1008.9 |
| 20260505195543 | 56 | 202 | 3.0 | 5.0 | 0.00 | 0.17 | 0.17 | 91 | 1008.8 |
| 20260505194543 | 56 | 180 | 3.0 | 5.0 | 0.00 | 0.17 | 0.17 | 91 | 1008.6 |
| 20260505193543 | 56 | 180 | 2.0 | 5.0 | 0.00 | 0.17 | 0.17 | 91 | 1008.6 |
| 20260505192543 | 57 | 180 | 1.0 | 5.0 | 0.00 | 0.17 | 0.17 | 90 | 1008.5 |
| 20260505191543 | 57 | 180 | 0.0 | 2.0 | 0.00 | 0.17 | 0.17 | 90 | 1008.5 |
| 20260505190543 | 57 | 180 | 1.0 | 3.0 | 0.01 | 0.17 | 0.17 | 89 | 1008.5 |
| 20260505185543 | 58 | 180 | 1.0 | 4.0 | 0.02 | 0.17 | 0.17 | 89 | 1008.4 |
| 20260505184543 | 58 | 135 | 0.0 | 2.0 | 0.03 | 0.17 | 0.17 | 88 | 1008.6 |
| 20260505183658 | 58 | 135 | 0.0 | 2.0 | 0.03 | 0.17 | 0.17 | 88 | 1008.5 |
| 20260505182658 | 58 | 135 | 0.0 | 1.0 | 0.03 | 0.17 | 0.17 | 88 | 1008.4 |
| 20260505181658 | 59 | 135 | 0.0 | 2.0 | 0.03 | 0.17 | 0.17 | 87 | 1008.3 |
| 20260505180658 | 59 | 135 | 0.0 | 1.0 | 0.02 | 0.16 | 0.16 | 87 | 1008.2 |
| 20260505175658 | 59 | 202 | 0.0 | 3.0 | 0.01 | 0.14 | 0.14 | 86 | 1008.2 |
| 20260505174658 | 59 | 225 | 2.0 | 5.0 | 0.00 | 0.13 | 0.13 | 86 | 1008.6 |
| 20260505173658 | 59 | 225 | 3.0 | 5.0 | 0.00 | 0.13 | 0.13 | 84 | 1008.7 |
| 20260505172658 | 60 | 225 | 2.0 | 6.0 | 0.00 | 0.13 | 0.13 | 83 | 1008.6 |
| 20260505171658 | 60 | 180 | 1.0 | 3.0 | 0.00 | 0.13 | 0.13 | 83 | 1008.6 |
| 20260505170659 | 60 | 180 | 0.0 | 3.0 | 0.00 | 0.13 | 0.13 | 82 | 1008.5 |
| 20260505165659 | 60 | 180 | 1.0 | 3.0 | 0.00 | 0.13 | 0.13 | 83 | 1008.3 |
| 20260505164659 | 60 | 180 | 1.0 | 6.0 | 0.00 | 0.13 | 0.13 | 84 | 1008.3 |
| 20260505163659 | 59 | 0 | 0.0 | 0.0 | 0.00 | 0.13 | 0.13 | 85 | 1008.2 |
| 20260505162659 | 59 | 90 | 1.0 | 3.0 | 0.00 | 0.13 | 0.13 | 85 | 1008.2 |
| 20260505161659 | 59 | 90 | 2.0 | 4.0 | 0.01 | 0.13 | 0.13 | 86 | 1008.3 |
| 20260505160659 | 58 | 45 | 4.0 | 9.0 | 0.01 | 0.13 | 0.13 | 87 | 1008.2 |
| 20260505152659 | 57 | 0 | 0.0 | 0.0 | 0.02 | 0.13 | 0.13 | 88 | 1008.8 |
| 20260505151659 | 57 | 0 | 0.0 | 0.0 | 0.02 | 0.13 | 0.13 | 88 | 1008.8 |
| 20260505150659 | 57 | 0 | 0.0 | 0.0 | 0.03 | 0.13 | 0.13 | 89 | 1008.8 |
| 20260505124657 | 68 | 292 | 3.0 | 7.0 | 0.00 | 0.00 | 0.00 | 62 | 1008.4 |
| 20260505123539 | 68 | 292 | 4.0 | 8.0 | 0.00 | 0.00 | 0.00 | 62 | 1008.4 |
| 20260505122539 | 68 | 270 | 4.0 | 7.0 | 0.00 | 0.00 | 0.00 | 61 | 1008.4 |
| 20260505121540 | 68 | 292 | 3.0 | 7.0 | 0.00 | 0.00 | 0.00 | 63 | 1008.4 |
| 20260505120540 | 67 | 315 | 3.0 | 7.0 | 0.00 | 0.00 | 0.00 | 64 | 1008.6 |
| 20260505115539 | 67 | 292 | 4.0 | 7.0 | 0.00 | 0.00 | 0.00 | 64 | 1008.5 |
| 20260505114539 | 67 | 338 | 4.0 | 8.0 | 0.00 | 0.00 | 0.00 | 65 | 1008.5 |
| 20260505113539 | 67 | 315 | 4.0 | 9.0 | 0.00 | 0.00 | 0.00 | 65 | 1008.4 |
| 20260505112539 | 67 | 292 | 5.0 | 10.0 | 0.00 | 0.00 | 0.00 | 65 | 1008.4 |
| 20260505111540 | 68 | 315 | 4.0 | 8.0 | 0.00 | 0.00 | 0.00 | 64 | 1008.5 |
| 20260505110540 | 68 | 315 | 3.0 | 6.0 | 0.00 | 0.00 | 0.00 | 66 | 1008.5 |
| 20260505101540 | 66 | 315 | 4.0 | 8.0 | 0.00 | 0.00 | 0.00 | 68 | 1009.1 |
| 20260505100540 | 66 | 338 | 3.0 | 7.0 | 0.00 | 0.00 | 0.00 | 68 | 1009.3 |
| 20260505095539 | 66 | 270 | 3.0 | 9.0 | 0.00 | 0.00 | 0.00 | 68 | 1009.3 |
| 20260505094539 | 66 | 315 | 4.0 | 8.0 | 0.00 | 0.00 | 0.00 | 68 | 1009.3 |
| 20260505093540 | 67 | 315 | 3.0 | 9.0 | 0.00 | 0.00 | 0.00 | 67 | 1009.4 |
| 20260505092540 | 65 | 360 | 3.0 | 8.0 | 0.00 | 0.00 | 0.00 | 69 | 1009.5 |
| 20260505091539 | 65 | 338 | 3.0 | 8.0 | 0.00 | 0.00 | 0.00 | 69 | 1009.6 |
| 20260505090539 | 65 | 292 | 2.0 | 7.0 | 0.00 | 0.00 | 0.00 | 70 | 1009.7 |
| 20260505085539 | 65 | 248 | 4.0 | 9.0 | 0.00 | 0.00 | 0.00 | 71 | 1009.8 |
| 20260505084539 | 64 | 292 | 3.0 | 8.0 | 0.00 | 0.00 | 0.00 | 72 | 1009.8 |
| 20260505083539 | 64 | 292 | 3.0 | 6.0 | 0.00 | 0.00 | 0.00 | 72 | 1009.9 |
| 20260505082539 | 64 | 248 | 1.0 | 4.0 | 0.00 | 0.00 | 0.00 | 74 | 1010.0 |
| 20260505081539 | 63 | 270 | 2.0 | 7.0 | 0.00 | 0.00 | 0.00 | 74 | 1010.0 |
| 20260505080538 | 62 | 270 | 2.0 | 5.0 | 0.00 | 0.00 | 0.00 | 75 | 1010.1 |
| 20260505075538 | 62 | 292 | 3.0 | 7.0 | 0.00 | 0.00 | 0.00 | 75 | 1010.1 |
| 20260505074538 | 61 | 292 | 2.0 | 5.0 | 0.00 | 0.00 | 0.00 | 76 | 1010.2 |
| 20260505073538 | 61 | 292 | 2.0 | 4.0 | 0.00 | 0.00 | 0.00 | 77 | 1010.2 |
| 20260505072539 | 61 | 292 | 3.0 | 4.0 | 0.00 | 0.00 | 0.00 | 78 | 1010.2 |
| 20260505071539 | 60 | 292 | 3.0 | 6.0 | 0.00 | 0.00 | 0.00 | 78 | 1010.4 |
| 20260505070539 | 60 | 45 | 0.0 | 3.0 | 0.00 | 0.00 | 0.00 | 80 | 1010.7 |
| 20260505065539 | 58 | 0 | 0.0 | 0.0 | 0.00 | 0.00 | 0.00 | 82 | 1010.8 |
| 20260505064539 | 58 | 0 | 0.0 | 0.0 | 0.00 | 0.00 | 0.00 | 83 | 1010.8 |
| 20260505063538 | 57 | 0 | 0.0 | 0.0 | 0.00 | 0.00 | 0.00 | 84 | 1010.7 |
| 20260505062538 | 57 | 0 | 0.0 | 0.0 | 0.00 | 0.00 | 0.00 | 84 | 1010.8 |
| 20260505061538 | 57 | 0 | 0.0 | 0.0 | 0.00 | 0.00 | 0.00 | 84 | 1010.8 |
| 20260505060538 | 57 | 0 | 0.0 | 0.0 | 0.00 | 0.00 | 0.00 | 84 | 1010.8 |
| 20260505055538 | 57 | 0 | 0.0 | 0.0 | 0.00 | 0.00 | 0.00 | 84 | 1010.9 |
| 20260505054538 | 57 | 0 | 0.0 | 0.0 | 0.00 | 0.00 | 0.00 | 84 | 1010.9 |